Hourly Data Report for October 11, 2015

All times are specified in Local Standard Time (LST). Add 1 hour to adjust for Daylight Saving Time where and when it is observed.

SAINT JOHN A
NEW BRUNSWICK

45°18'58.000" N
65°53'24.000" W
108.80 m
8104901
71609
YSJ

Download Data

Hourly Data (October 2015)
Hourly Data Report for October 11, 2015
Temp Definition
°C
Dew Point Temp Definition
°C
Rel Hum Definition
%
Wind Dir Definition
10's deg

Wind Spd Definition
km/h
Visibility Definition
km
Stn Press Definition
kPa
Hmdx Definition


Wind Chill Definition


Weather Definition


TIME
00:00 Legend Double Dagger -1.5 -2.2 95 36 1 24.1 100.23   -2 LegendNANA
01:00 Legend Double Dagger 0.0 -0.7 95 36 2 24.1 100.19   -1 LegendNANA
02:00 Legend Double Dagger 2.3 0.7 89 21 7 24.1 100.18     Cloudy
03:00 Legend Double Dagger 2.3 1.0 91 36 2 24.1 100.12     LegendNANA
04:00 Legend Double Dagger 0.6 -0.1 95 36 2 24.1 100.04     LegendNANA
05:00 Legend Double Dagger 1.7 0.8 94 36 3 24.1 100.02     Cloudy
06:00 Legend Double Dagger 3.3 1.2 86 9 4 24.1 99.95     LegendNANA
07:00 Legend Double Dagger 3.1 2.1 93 36 2 24.1 99.92     LegendNANA
08:00 Legend Double Dagger 9.2 6.5 83 23 14 24.1 99.88     Cloudy
09:00 Legend Double Dagger 10.8 7.7 81 22 20 24.1 99.80     LegendNANA
10:00 Legend Double Dagger 11.9 8.4 79 22 34 24.1 99.80     LegendNANA
11:00 Legend Double Dagger 12.0 9.2 83 22 30 24.1 99.73     Cloudy
12:00 Legend Double Dagger 11.6 10.0 90 21 31 19.3 99.65     Rain
13:00 Legend Double Dagger 11.7 9.6 87 21 29 24.1 99.53     LegendNANA
14:00 Legend Double Dagger 11.7 8.6 81 22 23 24.1 99.51     Mostly Cloudy
15:00 Legend Double Dagger 12.1 8.0 76 23 17 24.1 99.48     LegendNANA
16:00 Legend Double Dagger 11.2 10.0 92 22 19 19.3 99.45     Rain
17:00 Legend Double Dagger 11.0 10.4 96 23 13 24.1 99.47     Rain
18:00 Legend Double Dagger 10.9 10.3 96 22 16 19.3 99.51     Rain
19:00 Legend Double Dagger 10.8 10.4 97 22 13 19.3 99.51     Rain
20:00 Legend Double Dagger 10.9 10.5 97 22 13 9.7 99.56     Fog
21:00 Legend Double Dagger 11.1 10.7 97 23 12 9.7 99.54     Fog
22:00 Legend Double Dagger 11.1 10.7 97 23 9 19.3 99.57     LegendNANA
23:00 Legend Double Dagger 11.1 10.7 97 21 8 19.3 99.56     Cloudy

Notes on Data Quality.

Legend

  • E = Estimated
  • M = Missing
  • NA = Not Available
  • ‡ = Partner data that is not subject to review by the National Climate Archives
Date modified: